Location: Esp�s Alto
(42.4476°N, 0.5876°E)
Time: 06:08:10
(UTC+00:00)

Cosmos 2278 Rocket - Pass Details

Date: 22 October 2019
Orbit: 840 x 846 km, 71.0° (Epoch: 21 November)

Event Time Altitude Azimuth Distance (km) Brightness Sun altitude
Exits shadow 05:22:07 11° 249° (WSW) 2,398 4.0 -11.1°
Drops below altitude 10° 05:22:41 10° 243° (WSW) 2,462 4.1 -10.9°
Sets 05:26:50 0° 213° (SSW) 3,389 5.1 -10.2°
